Weather in Surkovo

Russia / Novosibirsk Oblast     55°18′22″N   84°30′55″E
temp.,
°C
wind,
m/s
gust,
m/s
humid.,
%
clouds,
%
prec.,
mm/h
press.,
hPa
HPBL,
m
5 march, fri
fri501:00−7ssw71684100 0.1 1016498
04:00−8ssw61681100 0.0 1014443
07:00−7s61580100 0.0 1013475
10:00−7ssw81587100 0.0 1012769
13:00−4sw91588100 0.2 1011923
16:00−2sw101685100 0.3 10121379
19:00−6wsw91781100 0.4 1016958
22:00−6sw91792100 0.1 1018839
6 march, sat
sat601:00−5sw81592100 0.6 10171072
04:00−5sw81593100 0.7 1017981
07:00−6sw91690100 1.3 1017825
10:00−6sw91687100 0.1 1016909
13:00−5sw101783100 0.2 1015970
16:00−4sw101685100 0.0 10131064
19:00−5sw91692100 0.6 1013962
22:00−4sw81690100 0.4 1011914
7 march, sun
sun701:00−4sw81690100 0.5 1012793
04:00−3sw81494100 0.3 1012783
07:00−4w61294100 0.7 1015680
10:00−8wsw5118475 0.1 1017407
13:00−6wsw5107888 0.1 1019547
16:00−5wsw5975100 0.0 1019718
19:00−9wsw228292 0.0 102021
22:00−10sse239270 0.0 102021
8 march, mon
mon801:00−6sse499485 0.0 1019267
04:00−5s51393100 0.0 1016470
07:00−6ssw51390100 0.0 1015424
10:00−4ssw61487100 0.0 1014503
13:00−1ssw81388100 0.0 1013528
16:000ssw61385100 0.0 1011709
19:00−1ssw61483100 0.0 1009634
22:00−3ssw51588100 0.0 1009709
9 march, tue
tue901:00−1sw61491100 0.1 1009834
04:00−1wsw51198100 1.0 1010736
07:00−7wnw71292100 1.6 1016495
10:00−10w6109296 0.0 1022473
13:00−8wsw6108686 0.1 1025745
16:00−7wsw698253 0.0 1027747
19:00−10ssw348859 0.0 102757
22:00−11s499174 0.0 1026203